Regional Weather Roundup
Issued by NWS

Home | Current Version | Previous Version | Graphics & Text | Print | Product List | Glossary On
Versions: 1 2 3 4 5 6 7 8 9 10 11 12 13 14 15 16 17 18 19 20 21 22 23 24 25 26 27 28 29 30 31 32 33 34 35 36 37 38 39 40 41 42 43 44 45 46 47 48 49 50
000
ASUS45 KTFX 180504
RWRMT
MONTANA HOURLY WEATHER ROUNDUP
NATIONAL WEATHER SERVICE GREAT FALLS MT
1104 PM MDT THU APR 17 2014

NOTE: "FAIR" INDICATES FEW OR NO CLOUDS BELOW 12000 FEET WITH NO
SIGNIFICANT WEATHER AND/OR OBSTRUCTIONS TO VISIBILITY.

* THESE STATIONS ARE NOT UNDER NWS QUALITY CONTROL. THEY DO NOT
   REPORT WEATHER SUCH AS PRECIPITATION OR FOG.

MTZ001>007-043-180600-
WEST OF THE DIVIDE
CITY           SKY/WX    TMP DP  RH WIND       PRES   REMARKS
KALISPELL      CLOUDY    45  43  93 S7        29.72F
MISSOULA       LGT RAIN  45  45 100 NW5       29.76S
BUTTE          MOCLDY    43  30  60 SE3       29.72F
MULLAN PASS    LGT SNOW  32  32 100 VRB3      29.74F VSB 1/2
* ESSEX        N/A       36  35  96 N/A        N/A
* LINCOLN      N/A       44  37  76 S4         N/A
* LOOKOUT PASS N/A       37  37 100 E3         N/A
* POLSON       N/A       42  42 100 SE1        N/A
* SEELEY LAKE  N/A       41  40  96 N1         N/A
* THOMP F APT  CLOUDY    50  23  35 SE8G18     N/A
$$

MTZ008-052>055-180600-
SOUTHWEST MONTANA
CITY           SKY/WX    TMP DP  RH WIND       PRES   REMARKS
BOZEMAN        MOCLDY    43  30  60 SE12      29.72F
DILLON         MOCLDY    57  23  27 S21       29.70F
W YELLOWSTONE  N/A       44  24  45 S4G11      N/A
* THREE FORKS  MOCLDY    54  30  40 N/A        N/A
* BOULDER HILL N/A       44  29  56 S3         N/A
* MONIDA PASS  N/A       46  24  42 SE8        N/A
* RAYNOLDS PAS N/A       45  28  51 SE21G27    N/A
* WHITEHALL    N/A       55  25  31 NE3        N/A
* WISE RIVER   N/A       43  27  53 S5         N/A
$$

MTZ009>010-012-014-046-048-049-054-180600-
EAST SLOPES AND CENTRAL MONTANA
CITY           SKY/WX    TMP DP  RH WIND       PRES   REMARKS
CUT BANK       CLOUDY    45  36  71 SW6       29.67F
GREAT FALLS    LGT RAIN  46  43  89 E10       29.71F
HELENA         CLOUDY    55  34  45 SW3       29.67F
MALMSTROM AFB  LGT RAIN  46  43  89 SE6       29.69F
* CONRAD       CLOUDY    46  37  71 N/A        N/A
* DEARBORN     N/A       53  38  57 NE3G8      N/A
* EAST GLACIER N/A       40  35  82 W19        N/A   WCI  31
* MONARCH      N/A       41  35  79 NE1        N/A
* PENDROY      N/A       46  32  58 SW7        N/A
* ROGERS PASS  N/A       42  33  71 SE2G13     N/A
* SAINT MARY   N/A       40  33  76 S4G9       N/A
* SWEET GRASS  N/A       44  40  86 S8         N/A
$$

MTZ011-013-016-021-035-040-045-047-050-051-180600-
NORTH CENTRAL MONTANA
CITY           SKY/WX    TMP DP  RH WIND       PRES   REMARKS
HAVRE          CLOUDY    50  37  61 E10       29.71F
LEWISTOWN      CLOUDY    46  34  63 SE5       29.77F
* CHESTER      N/A       49  36  61 SE5        N/A
* DENTON       N/A       47  33  58 W2         N/A
* GEYSER       N/A       44  41  89 SE1        N/A
* JUDITH GAP   N/A       48  29  48 E16G22     N/A
* LOMA         N/A       50  39  66 SE7        N/A
$$

MTZ017>020-022>027-061-062-180600-
NORTHEAST MONTANA
CITY           SKY/WX    TMP DP  RH WIND       PRES   REMARKS
GLASGOW        MOCLDY    45  32  60 E22       29.81F
GLENDIVE       MOCLDY    46  28  50 SE13G20   29.91F
JORDAN         CLOUDY    48  41  77 S7        29.81S
SIDNEY         CLOUDY    43  28  56 SE9       29.97F
WOLF POINT     LGT RAIN  46  30  54 E14       29.88F
* BEAVER HILL  N/A       41  29  62 E27G34     N/A
* CIRCLE       N/A       48  34  59 E11G20     N/A
* LINDSAY DVD  N/A       42  30  63 E12        N/A
* NAVAJO       N/A       36  28  73 E15G22     N/A   WCI  27
* SACO         N/A       45  33  63 E20G27     N/A
$$

MTZ028>042-056>058-180600-
SOUTHCENTRAL AND SOUTHEAST MONTANA
CITY           SKY/WX    TMP DP  RH WIND       PRES   REMARKS
BAKER          CLOUDY    43  32  65 SE22G29   29.91F
BILLINGS       MOCLDY    54  32  43 SE7       29.76F
LIVINGSTON     MOCLDY    48  28  46 E3        29.73F
MILES CITY     CLOUDY    50  36  59 SE17      29.83F
* LAUREL APT   PTCLDY    52  30  43 N/A        N/A
* ROUNDUP APT  PTCLDY    48  32  54 N/A        N/A
* HYSHAM       N/A       52  25  35 SE6        N/A
* LAME DEER    N/A       48  26  42 SE8        N/A
* REED POINT   N/A       47  30  52 N/A        N/A
* ROSCOE HILL  N/A       53  11  18 SW4        N/A
$$

REGIONAL REPORTS...DAKOTAS
CITY           SKY/WX    TMP DP  RH WIND       PRES   REMARKS
WILLISTON      MOCLDY    39  27  62 SE10      30.00F WCI  32
DICKINSON      MOCLDY    36  25  64 SE14      29.99F WCI  27
CROSBY         CLEAR     30  27  89 E12       30.04S WCI  20
TIOGA          CLEAR     32  27  82 SE10      30.06F WCI  24
WATFORD CITY   CLOUDY    37  25  62 SE16G23   29.98F WCI  28
BISMARCK       CLEAR     30  23  75 SE7       30.13F WCI  23
GRAND FORKS    CLOUDY    34  21  59 NE6       30.29F WCI  29
FARGO          CLOUDY    34  19  54 NE8       30.28F WCI  27
RAPID CITY     MOCLDY    39  34  82 SE9       29.96F WCI  33
$$

REGIONAL REPORTS...WYOMING/IDAHO/WASHINGTON
CITY           SKY/WX    TMP DP  RH WIND       PRES   REMARKS
GILLETTE       CLOUDY    46  36  68 SE13      29.86F
SHERIDAN       CLOUDY    45  36  71 SW5       29.81F
CODY           MOCLDY    52  25  35 SW14      29.84S
YELLOWSTONE LA PTCLDY    28  25  89 CALM      29.97F
SALMON         CLOUDY    48  32  54 N7        29.67S
MULLAN PASS    LGT SNOW  32  32 100 VRB3      29.74S VSB 1/2
SPOKANE        CLOUDY    46  43  89 SW17G26   29.74F
$$

REGIONAL REPORTS...ALBERTA
CITY           SKY/WX    TMP DP  RH WIND       PRES   REMARKS
EDMONTON       LGT SNOW  28  27  96 E9        29.79F VSB 3    WCI  19

$$




USA.gov is the U.S. government's official web portal to all federal, state and local government web resources and services.